Location: Cisewo
(53.3833°N, 14.9000°E)
Time: 05:37:13
(UTC+00:00)

NOAA 18 - Pass Details

Date: 23 September 2021
Orbit: 841 x 860 km, 99.0° (Epoch: 17 October)

Event Time Altitude Azimuth Distance (km) Brightness Sun altitude
Exits shadow 21:49:26 18° 277° (W) 1,967 7.3 -35.5°
Drops below altitude 10° 21:52:48 10° 315° (NW) 2,479 8.3 -35.6°
Sets 21:56:00 0° 334° (NNW) 3,424 9.4 -35.8°
